WESTFORD NEEDLES, 628

Orbit data source: Space-Track

WESTFORD NEEDLES, 628 is space debris in LEO originally from a launch on Thu, 09 May 1963 UTC launched from the Air Force Western Test Range (AFWTR). Debris objects in space refer to the collection of defunct objects orbiting the Earth. Examples of debris include non-operational satellites, rocket bodies, and fragments generated from explosions, collisions, or faulty payload assembly.

Loading next visibility...
Identifier
628, 1963-014F
Orbit
LEO
Country
Flag of USUS
Related business
Manufacturer
Unknown
Mission
Spacecraft
Bus & Motor
Unknown
Mass
~10 kg wet, ~10 kg dry
Launch date (UTC)
1963-05-09 (62 years ago)
Launch vehicle
Unknown
Launch site
Air Force Western Test Range (AFWTR)
Object type
Payload
Rocket body
Debris
Shape & HBR
Unknown
Radar Cross Section
Medium (>0.1 m² and <1 m²)

Expand to show TLE details & history
Last TLE update: 4 days ago

TLE from 4 days ago
0 WESTFORD NEEDLES
1 00628U 63014F   25303.71427348  .00000003  00000-0  00000-0 0  9992
2 00628  87.3364 224.9260 0018659 354.5893   5.4757  8.63372533969158
Epoch: 2025-10-30T17:08Z
TLE epoch observation values (Epoch: 2025-10-30T17:08:33.228Z)
Latitude
0.00004°
Longitude
-71.48154°
Altitude
3,642.381 km
Speed
6.314 km/s
True Right ascension
14h 59m 42s
True Declination
0° 00' 00"
Sunlit
Object was in daylight at epoch
Visualization orbit readout
Latitude
Unknown
Longitude
Unknown
Altitude
Unknown
Speed
Unknown
Apparent Right ascension
Unknown
Apparent Declination
Unknown
Sunlit
N/A
Visualization observer readout
Local Sidereal Time
11:50:36
Azimuth
Unknown
Elevation
Unknown
Doppler factor
Unknown
Orbital elements
Apogee altitude
3,675.393 km
Perigee altitude
3,637.945 km
Semi-major axis
10,034.806 km
Eccentricity
0.00187
Inclination
87.3364°
RAAN
224.926°
Arg. of periapsis
354.5893°
True anomaly
5.49615°
Mean anomaly
5.4757°
Eccentric anomaly
5.48592°
Mean motion
2.15913 °/min
Orbital period
166.73 mins
BSTAR
0
Loading maneuver chart data...
Computing Atmospheric mass density...

Documentation

Showing up to 5 results
|